Location: York
(31.8935°S, 116.7682°E)
Time: 16:57:00
(UTC+08:00)

SR - Visible Passes

Search period start: 25 September 2022 00:00
Search period end: 05 October 2022 00:00
Orbit: 573 x 879 km, 66.7° (Epoch: 24 September)

Date Brightness Start Highest point End Pass type
(mag) Time Alt. Az. Time Alt. Az. Time Alt. Az.
25 Sep ? 19:06:49 10° SSE 19:10:02 17° SE 19:11:07 16° ESE visible
25 Sep ? 20:47:24 10° SW 20:50:32 35° WSW 20:50:32 35° WSW visible
26 Sep ? 19:57:07 10° SSW 20:02:02 73° ESE 20:02:27 69° ENE visible
27 Sep ? 19:07:23 10° S 19:11:47 33° ESE 19:14:28 20° ENE visible
27 Sep ? 20:49:37 10° SW 20:53:37 24° WNW 20:53:55 24° WNW visible
28 Sep ? 19:58:43 10° SW 20:03:34 55° WNW 20:06:06 29° N visible
29 Sep ? 19:08:31 10° SSW 19:13:25 66° ESE 19:18:29 11° NE visible
29 Sep ? 20:53:15 10° W 20:54:59 12° WNW 20:56:46 10° NW visible
30 Sep ? 20:00:49 10° SW 20:05:02 27° WNW 20:09:31 10° NNW visible
01 Oct ? 19:10:03 10° SSW 19:14:58 62° WNW 19:20:17 10° NNE visible
02 Oct ? 20:03:59 10° WSW 20:06:25 13° WNW 20:08:54 10° NW visible
03 Oct ? 19:12:01 10° SW 19:16:26 30° WNW 19:21:07 10° N visible
